Location: *
(48.4333°N, 5.0333°W)
Time: 03:18:53
(UTC+00:00)

SL-8 Rocket - Pass Details

Date: 09 April 2020
Orbit: 957 x 991 km, 82.9° (Epoch: 02 June)

Event Time Altitude Azimuth Distance (km) Brightness Sun altitude
Rises 21:06:17 0° 349° (NNW) 3,710 7.8 -19.2°
Reaches altitude 10° 21:08:49 10° 347° (NNW) 2,760 7.1 -19.5°
Maximum altitude 21:15:07 71° 265° (W) 1,049 4.2 -20.3°
Enters shadow 21:19:56 18° 185° (S) 2,218 5.5 -20.9°
